Content
SEND FEEDBACK

Daily
Averages
Monthly
Summary
United States of America

DEDEDO, GUAM


Home > North America > United States > Guam
Elevation: 111 meters     Latitude: 13 33N     Longitude: 144 49E

WEATHER
 
SELECT A DAY
Number of Records: 208,997;   Date Range: 1/1/95 - 7/26/14
 
SHARE

PRINT THIS DATA

[ ← Previous Day ]
WEATHER ALMANAC - 6 FEBRUARY, 2013
[ Next Day → ]
[ °F ]   °C
Weather ElementAverageHighLow
Temperature26.6 °C28.9 °C (12:54 pm)25 °C (4:54 am)
Dewpoint21.4 °C21.7 °C (1:54 am)20 °C (12:54 pm)
Humidity73.3 %82 % (4:54 am)58 % (12:54 pm)
Barometer1012.2 hPa1013.9 hPa (8:54 am)1010.2 hPa (3:54 pm)
Wind Speed15.3 km/h22.2 km/h (9:54 am)
Wind Gust33.3 km/h (8:54 am)
Weather ElementAverage
Visibility16.1 km
Wind DirectionE (84.8 °)

Weather ElementTotal
Precipitation---
Cooling Degree Days8.6 (Base 18.3)
Growing Degree Days16.9 (Base 10)
Averaged from 23 records on 6 February, 2013
WEATHER CONDITIONS BREAKOUT
WIND DIRECTION BREAKOUT
WEATHER BY HOUR - 6 FEBRUARY, 2013
[ °F ]   °C
Local TimeTemperatureDewpointHumidityBarometerVisibilityWind DirectionWind SpeedGust SpeedPrecipitationEventsConditions
1:54 AM25.6 °C21.7 °C79 %1012.2 hPa16.1 kmENE (70°)13 km/h0 mmPartly Cloudy
2:54 AM25.6 °C21.1 °C76 %1011.9 hPa16.1 kmEast (80°)16.7 km/hScattered Clouds
3:54 AM25.6 °C21.7 °C79 %1011.9 hPa16.1 kmEast (80°)11.1 km/hMostly Cloudy
4:54 AM25 °C21.7 °C82 %1011.9 hPa16.1 kmEast (90°)9.3 km/hClear
5:54 AM25 °C21.7 °C82 %1012.2 hPa16.1 kmEast (90°)11.1 km/hPartly Cloudy
6:54 AM25 °C21.7 °C82 %1012.9 hPa16.1 kmEast (80°)11.1 km/hPartly Cloudy
7:54 AM26.1 °C21.7 °C77 %1013.5 hPa16.1 kmEast (80°)14.8 km/hClear
8:54 AM27.2 °C21.7 °C72 %1013.9 hPa16.1 kmEast (100°)20.4 km/h33.3 km/hScattered Clouds
9:54 AM27.8 °C21.7 °C69 %1013.9 hPa16.1 kmEast (80°)22.2 km/hScattered Clouds
10:54 AM27.8 °C21.7 °C69 %1013.5 hPa16.1 kmEast (100°)20.4 km/h33.3 km/hPartly Cloudy
11:54 AM27.8 °C21.7 °C69 %1012.5 hPa16.1 kmEast (100°)20.4 km/h31.5 km/hMostly Cloudy
12:54 PM28.9 °C20 °C58 %1011.9 hPa16.1 kmEast (90°)20.4 km/h33.3 km/hMostly Cloudy
1:54 PM28.3 °C21.7 °C67 %1010.8 hPa16.1 kmEast (100°)20.4 km/hScattered Clouds
2:54 PM28.9 °C20.6 °C61 %1010.5 hPa16.1 kmEast (100°)18.5 km/h31.5 km/hClear
3:54 PM28.3 °C20.6 °C63 %1010.2 hPa16.1 kmEast (80°)22.2 km/hPartly Cloudy
4:54 PM27.8 °C20.6 °C65 %1010.2 hPa16.1 kmEast (100°)18.5 km/hClear
5:54 PM27.2 °C21.7 °C72 %1010.5 hPa16.1 kmENE (70°)16.7 km/hClear
6:54 PM26.1 °C21.1 °C74 %1011.2 hPa16.1 kmEast (80°)11.1 km/hClear
7:54 PM26.1 °C21.7 °C77 %1011.9 hPa16.1 kmENE (70°)11.1 km/hClear
8:54 PM26.1 °C21.7 °C77 %1012.5 hPa16.1 kmENE (70°)11.1 km/hPartly Cloudy
9:54 PM25.6 °C21.7 °C79 %1012.9 hPa16.1 kmEast (80°)9.3 km/hPartly Cloudy
10:54 PM25.6 °C21.7 °C79 %1012.5 hPa16.1 kmEast (80°)11.1 km/hClear
11:54 PM25 °C21.1 °C79 %1012.5 hPa16.1 kmEast (80°)11.1 km/hClear
Hourly data recorded from PGUM, located 0 kilometers away from Dededo, Guam







STORIES FROM OUR PARTNERS